Flag for U.S.A. Weather past 2 weeks in West Covina, California, U.S.A.

Now
64 °F

Mostly cloudy.


Feels Like: 64 °F
Forecast: 56 / 68 °F
Wind: 6 mph from South

Location: Fullerton Municipal Airport

Current Time: May 22, 2015 at 9:16:17 PM

Latest Report: May 22, 2015 at 7:53 PM


Visibility: 10 mi

Pressure: 30.03 "Hg

Humidity: 68%

Dew point: 53 °F

Location of West CovinaLocation

Historic Weather in West Covina — Graph

°F

West Covina temperature yesterday

Maximum temperature yesterday: 71 °F (at 1:53 PM)
Minimum temperature yesterday: 61 °F (at 3:53 AM)
Average temperature yesterday: 65 °F

Past Weeks' High & Low Weather Summary

 TemperatureHumidityPressure
High78 °F (May 10, 4:53 PM)87% (May 11, 2:53 AM)30.07 "Hg (May 11, 2:53 AM)
Low52 °F (May 8, 5:53 AM)35% (May 11, 5:53 PM)29.78 "Hg (May 11, 6:53 PM)
Average63 °F64%29.95 "Hg
* Reported May 7 7:53 PM — May 22 7:53 PM, West Covina, Weather by CustomWeather, © 2015

Note: Actual official high and low records may vary slightly from our data, if they occured in-between our weather recording intervals... More about our weather records

Advertising

West Covina weather history for previous 24 hours

 ConditionsComfort  
Time TempWeatherWind HumidityBarometerVisibility
7:53 PM
Fri, May 22
64 °FMostly cloudy.6 mph68%30.03 "Hg10 mi
6:53 PM64 °FMostly cloudy.8 mph61%30.01 "Hg10 mi
5:53 PM65 °FOvercast.6 mph56%30.00 "Hg10 mi
4:53 PM66 °FMore clouds than sun.9 mph56%30.00 "Hg10 mi
3:53 PM67 °FCloudy.5 mph55%30.00 "Hg10 mi
2:53 PM66 °FOvercast.7 mph56%30.01 "Hg10 mi
1:53 PM65 °FOvercast.7 mph54%30.01 "Hg10 mi
12:53 PM67 °FOvercast.7 mph51%30.01 "Hg10 mi
11:53 AM66 °FMore clouds than sun.5 mph54%30.02 "Hg10 mi
10:53 AM65 °FMostly cloudy.No wind52%30.02 "Hg10 mi
9:53 AM64 °FMostly cloudy.5 mph56%30.01 "Hg10 mi
8:53 AM63 °FPartly sunny.5 mph60%30.01 "Hg10 mi
7:53 AM61 °FMore clouds than sun.7 mph65%30.00 "Hg10 mi
6:53 AM60 °FOvercast.6 mph65%29.99 "Hg10 mi
5:53 AM59 °FOvercast.3 mph72%29.98 "Hg10 mi
4:53 AM59 °FPassing clouds.5 mph69%29.97 "Hg10 mi
3:53 AM59 °FPassing clouds.5 mph75%29.97 "Hg10 mi
2:53 AM60 °FClear.5 mph67%29.96 "Hg10 mi
1:53 AM60 °FPassing clouds.3 mph67%29.97 "Hg10 mi
12:53 AM61 °FPassing clouds.5 mph60%29.98 "Hg10 mi
11:53 PM
Thu, May 21
62 °FOvercast.5 mph46%29.98 "Hg10 mi
10:53 PM61 °FClear.6 mph54%29.98 "Hg10 mi
9:53 PM62 °FClear.7 mph56%29.97 "Hg10 mi
Weather by CustomWeather, © 2015

See weather overviewHow to use our weather pages